Year,Month,Day,Hour,Minute,Value (Times are PST for temperature in C)
2013,07,30,00,00,16.20
2013,07,30,00,01,16.10
2013,07,30,00,02,16.10
2013,07,30,00,03,16.00
2013,07,30,00,04,16.00
2013,07,30,00,05,16.00
2013,07,30,00,06,15.90
2013,07,30,00,07,15.90
2013,07,30,00,08,15.90
2013,07,30,00,09,15.90
2013,07,30,00,10,15.90
2013,07,30,00,11,15.80
2013,07,30,00,12,15.80
2013,07,30,00,13,15.80
2013,07,30,00,14,15.70
2013,07,30,00,15,15.70
2013,07,30,00,16,15.70
2013,07,30,00,17,15.60
2013,07,30,00,18,15.60
2013,07,30,00,19,15.50
2013,07,30,00,20,15.50
2013,07,30,00,21,15.40
2013,07,30,00,22,15.40
2013,07,30,00,23,15.30
2013,07,30,00,24,15.30
2013,07,30,00,25,15.30
2013,07,30,00,26,15.20
2013,07,30,00,27,15.20
2013,07,30,00,28,15.10
2013,07,30,00,29,15.10
2013,07,30,00,30,15.10
2013,07,30,00,31,15.00
2013,07,30,00,32,15.00
2013,07,30,00,33,14.90
2013,07,30,00,34,14.90
2013,07,30,00,35,14.90
2013,07,30,00,36,14.80
2013,07,30,00,37,14.80
2013,07,30,00,38,14.80
2013,07,30,00,39,14.80
2013,07,30,00,40,14.80
2013,07,30,00,41,14.80
2013,07,30,00,42,14.80
2013,07,30,00,43,14.80
2013,07,30,00,44,14.80
2013,07,30,00,45,14.80
2013,07,30,00,46,14.80
2013,07,30,00,47,14.80
2013,07,30,00,48,14.80
2013,07,30,00,49,14.80
2013,07,30,00,50,14.80
2013,07,30,00,51,14.80
2013,07,30,00,52,14.80
2013,07,30,00,53,14.90
2013,07,30,00,54,14.90
2013,07,30,00,55,14.90
2013,07,30,00,56,14.90
2013,07,30,00,57,14.90
2013,07,30,00,58,15.00
2013,07,30,00,59,15.00
2013,07,30,01,00,15.00
2013,07,30,01,01,15.00
2013,07,30,01,02,15.00
2013,07,30,01,03,14.90
2013,07,30,01,04,14.90
2013,07,30,01,05,14.90
2013,07,30,01,06,14.90
2013,07,30,01,07,14.90
2013,07,30,01,08,14.90
2013,07,30,01,09,14.90
2013,07,30,01,10,14.90
2013,07,30,01,11,14.90
2013,07,30,01,12,14.80
2013,07,30,01,13,14.80
2013,07,30,01,14,14.80
2013,07,30,01,15,14.80
2013,07,30,01,16,14.80
2013,07,30,01,17,14.80
2013,07,30,01,18,14.80
2013,07,30,01,19,14.80
2013,07,30,01,20,14.70
2013,07,30,01,21,14.70
2013,07,30,01,22,14.70
2013,07,30,01,23,14.70
2013,07,30,01,24,14.70
2013,07,30,01,25,14.70
2013,07,30,01,26,14.70
2013,07,30,01,27,14.70
2013,07,30,01,28,14.70
2013,07,30,01,29,14.70
2013,07,30,01,30,14.60
2013,07,30,01,31,14.60
2013,07,30,01,32,14.60
2013,07,30,01,33,14.60
2013,07,30,01,34,14.60
2013,07,30,01,35,14.60
2013,07,30,01,36,14.60
2013,07,30,01,37,14.60
2013,07,30,01,38,14.60
2013,07,30,01,39,14.60
2013,07,30,01,40,14.50
2013,07,30,01,41,14.50
2013,07,30,01,42,14.50
2013,07,30,01,43,14.50
2013,07,30,01,44,14.40
2013,07,30,01,45,14.40
2013,07,30,01,46,14.40
2013,07,30,01,47,14.40
2013,07,30,01,48,14.30
2013,07,30,01,49,14.30
2013,07,30,01,50,14.30
2013,07,30,01,51,14.30
2013,07,30,01,52,14.30
2013,07,30,01,53,14.30
2013,07,30,01,54,14.20
2013,07,30,01,55,14.20
2013,07,30,01,56,14.20
2013,07,30,01,57,14.20
2013,07,30,01,58,14.20
2013,07,30,01,59,14.20
2013,07,30,02,00,14.20
2013,07,30,02,01,14.10
2013,07,30,02,02,14.10
2013,07,30,02,03,14.10
2013,07,30,02,04,14.10
2013,07,30,02,05,14.10
2013,07,30,02,06,14.00
2013,07,30,02,07,14.00
2013,07,30,02,08,14.00
2013,07,30,02,09,14.00
2013,07,30,02,10,14.00
2013,07,30,02,11,14.00
2013,07,30,02,12,13.90
2013,07,30,02,13,13.90
2013,07,30,02,14,13.90
2013,07,30,02,15,13.90
2013,07,30,02,16,13.90
2013,07,30,02,17,13.90
2013,07,30,02,18,13.90
2013,07,30,02,19,13.80
2013,07,30,02,20,13.80
2013,07,30,02,21,13.80
2013,07,30,02,22,13.80
2013,07,30,02,23,13.80
2013,07,30,02,24,13.80
2013,07,30,02,25,13.80
2013,07,30,02,26,13.80
2013,07,30,02,27,13.70
2013,07,30,02,28,13.70
2013,07,30,02,29,13.70
2013,07,30,02,30,13.70
2013,07,30,02,31,13.70
2013,07,30,02,32,13.70
2013,07,30,02,33,13.70
2013,07,30,02,34,13.70
2013,07,30,02,35,13.60
2013,07,30,02,36,13.60
2013,07,30,02,37,13.60
2013,07,30,02,38,13.60
2013,07,30,02,39,13.60
2013,07,30,02,40,13.60
2013,07,30,02,41,13.60
2013,07,30,02,42,13.60
2013,07,30,02,43,13.60
2013,07,30,02,44,13.60
2013,07,30,02,45,13.60
2013,07,30,02,46,13.60
2013,07,30,02,47,13.60
2013,07,30,02,48,13.60
2013,07,30,02,49,13.60
2013,07,30,02,50,13.60
2013,07,30,02,51,13.50
2013,07,30,02,52,13.50
2013,07,30,02,53,13.50
2013,07,30,02,54,13.50
2013,07,30,02,55,13.50
2013,07,30,02,56,13.50
2013,07,30,02,57,13.50
2013,07,30,02,58,13.50
2013,07,30,02,59,13.50
2013,07,30,03,00,13.50
2013,07,30,03,01,13.50
2013,07,30,03,02,13.40
2013,07,30,03,03,13.40
2013,07,30,03,04,13.40
2013,07,30,03,05,13.40
2013,07,30,03,06,13.40
2013,07,30,03,07,13.40
2013,07,30,03,08,13.40
2013,07,30,03,09,13.40
2013,07,30,03,10,13.40
2013,07,30,03,11,13.40
2013,07,30,03,12,13.40
2013,07,30,03,13,13.40
2013,07,30,03,14,13.40
2013,07,30,03,15,13.40
2013,07,30,03,16,13.40
2013,07,30,03,17,13.40
2013,07,30,03,18,13.30
2013,07,30,03,19,13.30
2013,07,30,03,20,13.30
2013,07,30,03,21,13.30
2013,07,30,03,22,13.30
2013,07,30,03,23,13.20
2013,07,30,03,24,13.20
2013,07,30,03,25,13.20
2013,07,30,03,26,13.20
2013,07,30,03,27,13.20
2013,07,30,03,28,13.20
2013,07,30,03,29,13.10
2013,07,30,03,30,13.10
2013,07,30,03,31,13.10
2013,07,30,03,32,13.10
2013,07,30,03,33,13.10
2013,07,30,03,34,13.00
2013,07,30,03,35,13.00
2013,07,30,03,36,13.00
2013,07,30,03,37,13.00
2013,07,30,03,38,12.90
2013,07,30,03,39,12.90
2013,07,30,03,40,12.90
2013,07,30,03,41,12.90
2013,07,30,03,42,12.80
2013,07,30,03,43,12.80
2013,07,30,03,44,12.80
2013,07,30,03,45,12.70
2013,07,30,03,46,12.70
2013,07,30,03,47,12.70
2013,07,30,03,48,12.70
2013,07,30,03,49,12.60
2013,07,30,03,50,12.60
2013,07,30,03,51,12.60
2013,07,30,03,52,12.60
2013,07,30,03,53,12.60
2013,07,30,03,54,12.50
2013,07,30,03,55,12.50
2013,07,30,03,56,12.50
2013,07,30,03,57,12.50
2013,07,30,03,58,12.50
2013,07,30,03,59,12.50
2013,07,30,04,00,12.40
2013,07,30,04,01,12.40
2013,07,30,04,02,12.40
2013,07,30,04,03,12.40
2013,07,30,04,04,12.40
2013,07,30,04,05,12.40
2013,07,30,04,06,12.40
2013,07,30,04,07,12.40
2013,07,30,04,08,12.40
2013,07,30,04,09,12.40
2013,07,30,04,10,12.40
2013,07,30,04,11,12.40
2013,07,30,04,12,12.40
2013,07,30,04,13,12.40
2013,07,30,04,14,12.50
2013,07,30,04,15,12.50
2013,07,30,04,16,12.40
2013,07,30,04,17,12.40
2013,07,30,04,18,12.40
2013,07,30,04,19,12.40
2013,07,30,04,20,12.40
2013,07,30,04,21,12.40
2013,07,30,04,22,12.40
2013,07,30,04,23,12.40
2013,07,30,04,24,12.40
2013,07,30,04,25,12.40
2013,07,30,04,26,12.30
2013,07,30,04,27,12.30
2013,07,30,04,28,12.30
2013,07,30,04,29,12.30
2013,07,30,04,30,12.30
2013,07,30,04,31,12.30
2013,07,30,04,32,12.30
2013,07,30,04,33,12.30
2013,07,30,04,34,12.30
2013,07,30,04,35,12.30
2013,07,30,04,36,12.30
2013,07,30,04,37,12.20
2013,07,30,04,38,12.20
2013,07,30,04,39,12.20
2013,07,30,04,40,12.20
2013,07,30,04,41,12.20
2013,07,30,04,42,12.20
2013,07,30,04,43,12.20
2013,07,30,04,44,12.20
2013,07,30,04,45,12.10
2013,07,30,04,46,12.10
2013,07,30,04,47,12.10
2013,07,30,04,48,12.10
2013,07,30,04,49,12.10
2013,07,30,04,50,12.10
2013,07,30,04,51,12.00
2013,07,30,04,52,12.00
2013,07,30,04,53,11.90
2013,07,30,04,54,11.90
2013,07,30,04,55,11.90
2013,07,30,04,56,11.90
2013,07,30,04,57,11.90
2013,07,30,04,58,11.90
2013,07,30,04,59,11.90
2013,07,30,05,00,11.90
2013,07,30,05,01,11.80
2013,07,30,05,02,11.80
2013,07,30,05,03,11.80
2013,07,30,05,04,11.80
2013,07,30,05,05,11.80
2013,07,30,05,06,11.80
2013,07,30,05,07,11.80
2013,07,30,05,08,11.80
2013,07,30,05,09,11.80
2013,07,30,05,10,11.80
2013,07,30,05,11,11.80
2013,07,30,05,12,11.80
2013,07,30,05,13,11.80
2013,07,30,05,14,11.80
2013,07,30,05,15,11.80
2013,07,30,05,16,11.80
2013,07,30,05,17,11.80
2013,07,30,05,18,11.80
2013,07,30,05,19,11.80
2013,07,30,05,20,11.80
2013,07,30,05,21,11.80
2013,07,30,05,22,11.70
2013,07,30,05,23,11.70
2013,07,30,05,24,11.70
2013,07,30,05,25,11.70
2013,07,30,05,26,11.70
2013,07,30,05,27,11.70
2013,07,30,05,28,11.70
2013,07,30,05,29,11.70
2013,07,30,05,30,11.70
2013,07,30,05,31,11.70
2013,07,30,05,32,11.70
2013,07,30,05,33,11.70
2013,07,30,05,34,11.70
2013,07,30,05,35,11.70
2013,07,30,05,36,11.70
2013,07,30,05,37,11.70
2013,07,30,05,38,11.70
2013,07,30,05,39,11.70
2013,07,30,05,40,11.70
2013,07,30,05,41,11.70
2013,07,30,05,42,11.70
2013,07,30,05,43,11.70
2013,07,30,05,44,11.70
2013,07,30,05,45,11.70
2013,07,30,05,46,11.70
2013,07,30,05,47,11.70
2013,07,30,05,48,11.70
2013,07,30,05,49,11.70
2013,07,30,05,50,11.70
2013,07,30,05,51,11.70
2013,07,30,05,52,11.70
2013,07,30,05,53,11.70
2013,07,30,05,54,11.70
2013,07,30,05,55,11.70
2013,07,30,05,56,11.70
2013,07,30,05,57,11.70
2013,07,30,05,58,11.70
2013,07,30,05,59,11.70
2013,07,30,06,00,11.70
2013,07,30,06,01,11.70
2013,07,30,06,02,11.70
2013,07,30,06,03,11.80
2013,07,30,06,04,11.80
2013,07,30,06,05,11.80
2013,07,30,06,06,11.80
2013,07,30,06,07,11.80
2013,07,30,06,08,11.80
2013,07,30,06,09,11.80
2013,07,30,06,10,11.80
2013,07,30,06,11,11.80
2013,07,30,06,12,11.70
2013,07,30,06,13,11.70
2013,07,30,06,14,11.70
2013,07,30,06,15,11.70
2013,07,30,06,16,11.70
2013,07,30,06,17,11.70
2013,07,30,06,18,11.70
2013,07,30,06,19,11.70
2013,07,30,06,20,11.70
2013,07,30,06,21,11.70
2013,07,30,06,22,11.70
2013,07,30,06,23,11.70
2013,07,30,06,24,11.80
2013,07,30,06,25,11.80
2013,07,30,06,26,11.80
2013,07,30,06,27,11.80
2013,07,30,06,28,11.80
2013,07,30,06,29,11.80
2013,07,30,06,30,11.80
2013,07,30,06,31,11.80
2013,07,30,06,32,11.80
2013,07,30,06,33,11.80
2013,07,30,06,34,11.80
2013,07,30,06,35,11.80
2013,07,30,06,36,11.90
2013,07,30,06,37,11.90
2013,07,30,06,38,11.90
2013,07,30,06,39,11.90
2013,07,30,06,40,11.90
2013,07,30,06,41,11.90
2013,07,30,06,42,11.90
2013,07,30,06,43,12.00
2013,07,30,06,44,12.00
2013,07,30,06,45,12.00
2013,07,30,06,46,12.00
2013,07,30,06,47,12.10
2013,07,30,06,48,12.10
2013,07,30,06,49,12.10
2013,07,30,06,50,12.10
2013,07,30,06,51,12.10
2013,07,30,06,52,12.20
2013,07,30,06,53,12.20
2013,07,30,06,54,12.20
2013,07,30,06,55,12.20
2013,07,30,06,56,12.20
2013,07,30,06,57,12.20
2013,07,30,06,58,12.20
2013,07,30,06,59,12.20
2013,07,30,07,00,12.20
2013,07,30,07,01,12.30
2013,07,30,07,02,12.30
2013,07,30,07,03,12.30
2013,07,30,07,04,12.30
2013,07,30,07,05,12.30
2013,07,30,07,06,12.30
2013,07,30,07,07,12.30
2013,07,30,07,08,12.30
2013,07,30,07,09,12.30
2013,07,30,07,10,12.40
2013,07,30,07,11,12.40
2013,07,30,07,12,12.40
2013,07,30,07,13,12.40
2013,07,30,07,14,12.40
2013,07,30,07,15,12.40
2013,07,30,07,16,12.50
2013,07,30,07,17,12.50
2013,07,30,07,18,12.50
2013,07,30,07,19,12.60
2013,07,30,07,20,12.60
2013,07,30,07,21,12.60
2013,07,30,07,22,12.60
2013,07,30,07,23,12.60
2013,07,30,07,24,12.60
2013,07,30,07,25,12.70
2013,07,30,07,26,12.70
2013,07,30,07,27,12.70
2013,07,30,07,28,12.70
2013,07,30,07,29,12.70
2013,07,30,07,30,12.80
2013,07,30,07,31,12.80
2013,07,30,07,32,12.80
2013,07,30,07,33,12.80
2013,07,30,07,34,12.90
2013,07,30,07,35,12.90
2013,07,30,07,36,13.00
2013,07,30,07,37,13.00
2013,07,30,07,38,13.10
2013,07,30,07,39,13.10
2013,07,30,07,40,13.10
2013,07,30,07,41,13.20
2013,07,30,07,42,13.20
2013,07,30,07,43,13.20
2013,07,30,07,44,13.20
2013,07,30,07,45,13.20
2013,07,30,07,46,13.20
2013,07,30,07,47,13.20
2013,07,30,07,48,13.20
2013,07,30,07,49,13.30
2013,07,30,07,50,13.30
2013,07,30,07,51,13.30
2013,07,30,07,52,13.30
2013,07,30,07,53,13.30
2013,07,30,07,54,13.30
2013,07,30,07,55,13.30
2013,07,30,07,56,13.30
2013,07,30,07,57,13.30
2013,07,30,07,58,13.30
2013,07,30,07,59,13.30
2013,07,30,08,00,13.20
2013,07,30,08,01,13.20
2013,07,30,08,02,13.20
2013,07,30,08,03,13.20
2013,07,30,08,04,13.20
2013,07,30,08,05,13.20
2013,07,30,08,06,13.20
2013,07,30,08,07,13.20
2013,07,30,08,08,13.20
2013,07,30,08,09,13.10
2013,07,30,08,10,13.10
2013,07,30,08,11,13.10
2013,07,30,08,12,13.10
2013,07,30,08,13,13.10
2013,07,30,08,14,13.10
2013,07,30,08,15,13.10
2013,07,30,08,16,13.10
2013,07,30,08,17,13.10
2013,07,30,08,18,13.10
2013,07,30,08,19,13.10
2013,07,30,08,20,13.10
2013,07,30,08,21,13.20
2013,07,30,08,22,13.20
2013,07,30,08,23,13.20
2013,07,30,08,24,13.30
2013,07,30,08,25,13.30
2013,07,30,08,26,13.30
2013,07,30,08,27,13.30
2013,07,30,08,28,13.30
2013,07,30,08,29,13.30
2013,07,30,08,30,13.40
2013,07,30,08,31,13.40
2013,07,30,08,32,13.40
2013,07,30,08,33,13.40
2013,07,30,08,34,13.50
2013,07,30,08,35,13.50
2013,07,30,08,36,13.50
2013,07,30,08,37,13.50
2013,07,30,08,38,13.50
2013,07,30,08,39,13.50
2013,07,30,08,40,13.50
2013,07,30,08,41,13.50
2013,07,30,08,42,13.50
2013,07,30,08,43,13.50
2013,07,30,08,44,13.50
2013,07,30,08,45,13.50
2013,07,30,08,46,13.50
2013,07,30,08,47,13.60
2013,07,30,08,48,13.60
2013,07,30,08,49,13.60
2013,07,30,08,50,13.70
2013,07,30,08,51,13.70
2013,07,30,08,52,13.80
2013,07,30,08,53,13.90
2013,07,30,08,54,14.00
2013,07,30,08,55,14.00
2013,07,30,08,56,14.00
2013,07,30,08,57,14.10
2013,07,30,08,58,14.10
2013,07,30,08,59,14.10
2013,07,30,09,00,14.10
2013,07,30,09,01,14.10
2013,07,30,09,02,14.10
2013,07,30,09,03,14.10
2013,07,30,09,04,14.20
2013,07,30,09,05,14.20
2013,07,30,09,06,14.20
2013,07,30,09,07,14.20
2013,07,30,09,08,14.20
2013,07,30,09,09,14.30
2013,07,30,09,10,14.30
2013,07,30,09,11,14.20
2013,07,30,09,12,14.30
2013,07,30,09,13,14.30
2013,07,30,09,14,14.30
2013,07,30,09,15,14.30
2013,07,30,09,16,14.30
2013,07,30,09,17,14.30
2013,07,30,09,18,14.30
2013,07,30,09,19,14.30
2013,07,30,09,20,14.30
2013,07,30,09,21,14.30
2013,07,30,09,22,14.30
2013,07,30,09,23,14.40
2013,07,30,09,24,14.40
2013,07,30,09,25,14.40
2013,07,30,09,26,14.40
2013,07,30,09,27,14.30
2013,07,30,09,28,14.30
2013,07,30,09,29,14.20
2013,07,30,09,30,14.20
2013,07,30,09,31,14.20
2013,07,30,09,32,14.20
2013,07,30,09,33,14.20
2013,07,30,09,34,14.20
2013,07,30,09,35,14.20
2013,07,30,09,36,14.20
2013,07,30,09,37,14.30
2013,07,30,09,38,14.30
2013,07,30,09,39,14.40
2013,07,30,09,40,14.40
2013,07,30,09,41,14.50
2013,07,30,09,42,14.50
2013,07,30,09,43,14.50
2013,07,30,09,44,14.60
2013,07,30,09,45,14.60
2013,07,30,09,46,14.60
2013,07,30,09,47,14.60
2013,07,30,09,48,14.70
2013,07,30,09,49,14.70
2013,07,30,09,50,14.70
2013,07,30,09,51,14.80
2013,07,30,09,52,14.70
2013,07,30,09,53,14.70
2013,07,30,09,54,14.70
2013,07,30,09,55,14.70
2013,07,30,09,56,14.70
2013,07,30,09,57,14.70
2013,07,30,09,58,14.70
2013,07,30,09,59,14.70
2013,07,30,10,00,14.70
2013,07,30,10,01,14.70
2013,07,30,10,02,14.70
2013,07,30,10,03,14.70
2013,07,30,10,04,14.70
2013,07,30,10,05,14.60
2013,07,30,10,06,14.60
2013,07,30,10,07,14.60
2013,07,30,10,08,14.60
2013,07,30,10,09,14.50
2013,07,30,10,10,14.50
2013,07,30,10,11,14.40
2013,07,30,10,12,14.30
2013,07,30,10,13,14.30
2013,07,30,10,14,14.30
2013,07,30,10,15,14.30
2013,07,30,10,16,14.30
2013,07,30,10,17,14.30
2013,07,30,10,18,14.30
2013,07,30,10,19,14.40
2013,07,30,10,20,14.50
2013,07,30,10,21,14.60
2013,07,30,10,22,14.60
2013,07,30,10,23,14.60
2013,07,30,10,24,14.70
2013,07,30,10,25,14.70
2013,07,30,10,26,14.70
2013,07,30,10,27,14.70
2013,07,30,10,28,14.70
2013,07,30,10,29,14.70
2013,07,30,10,30,14.70
2013,07,30,10,31,14.70
2013,07,30,10,32,14.70
2013,07,30,10,33,14.70
2013,07,30,10,34,14.80
2013,07,30,10,35,14.80
2013,07,30,10,36,14.80
2013,07,30,10,37,14.80
2013,07,30,10,38,14.80
2013,07,30,10,39,14.80
2013,07,30,10,40,14.80
2013,07,30,10,41,14.80
2013,07,30,10,42,14.80
2013,07,30,10,43,14.80
2013,07,30,10,44,14.80
2013,07,30,10,45,14.80
2013,07,30,10,46,14.70
2013,07,30,10,47,14.60
2013,07,30,10,48,14.60
2013,07,30,10,49,14.60
2013,07,30,10,50,14.50
2013,07,30,10,51,14.50
2013,07,30,10,52,14.40
2013,07,30,10,53,14.30
2013,07,30,10,54,14.20
2013,07,30,10,55,14.10
2013,07,30,10,56,14.00
2013,07,30,10,57,13.90
2013,07,30,10,58,13.80
2013,07,30,10,59,13.80
2013,07,30,11,00,13.80
2013,07,30,11,01,13.80
2013,07,30,11,02,13.80
2013,07,30,11,03,13.80
2013,07,30,11,04,13.80
2013,07,30,11,05,13.90
2013,07,30,11,06,13.90
2013,07,30,11,07,13.90
2013,07,30,11,08,13.90
2013,07,30,11,09,14.00
2013,07,30,11,10,14.10
2013,07,30,11,11,14.20
2013,07,30,11,12,14.20
2013,07,30,11,13,14.30
2013,07,30,11,14,14.30
2013,07,30,11,15,14.40
2013,07,30,11,16,14.50
2013,07,30,11,17,14.50
2013,07,30,11,18,14.60
2013,07,30,11,19,14.70
2013,07,30,11,20,14.70
2013,07,30,11,21,14.70
2013,07,30,11,22,14.80
2013,07,30,11,23,14.80
2013,07,30,11,24,14.90
2013,07,30,11,25,15.00
2013,07,30,11,26,15.10
2013,07,30,11,27,15.20
2013,07,30,11,28,15.30
2013,07,30,11,29,15.30
2013,07,30,11,30,15.40
2013,07,30,11,31,15.60
2013,07,30,11,32,15.70
2013,07,30,11,33,15.80
2013,07,30,11,34,15.90
2013,07,30,11,35,16.00
2013,07,30,11,36,16.10
2013,07,30,11,37,16.00
2013,07,30,11,38,16.00
2013,07,30,11,39,15.90
2013,07,30,11,40,15.80
2013,07,30,11,41,15.80
2013,07,30,11,42,15.80
2013,07,30,11,43,15.80
2013,07,30,11,44,15.80
2013,07,30,11,45,15.80
2013,07,30,11,46,15.80
2013,07,30,11,47,15.80
2013,07,30,11,48,15.90
2013,07,30,11,49,16.00
2013,07,30,11,50,16.10
2013,07,30,11,51,16.10
2013,07,30,11,52,16.20
2013,07,30,11,53,16.20
2013,07,30,11,54,16.30
2013,07,30,11,55,16.30
2013,07,30,11,56,16.40
2013,07,30,11,57,16.40
2013,07,30,11,58,16.40
2013,07,30,11,59,16.40
2013,07,30,12,00,16.30
2013,07,30,12,01,16.30
2013,07,30,12,02,16.20
2013,07,30,12,03,16.10
2013,07,30,12,04,16.00
2013,07,30,12,05,15.90
2013,07,30,12,06,15.80
2013,07,30,12,07,15.70
2013,07,30,12,08,15.60
2013,07,30,12,09,15.50
2013,07,30,12,10,15.40
2013,07,30,12,11,15.40
2013,07,30,12,12,15.30
2013,07,30,12,13,15.20
2013,07,30,12,14,15.00
2013,07,30,12,15,14.90
2013,07,30,12,16,14.80
2013,07,30,12,17,14.70
2013,07,30,12,18,14.70
2013,07,30,12,19,14.60
2013,07,30,12,20,14.40
2013,07,30,12,21,14.40
2013,07,30,12,22,14.30
2013,07,30,12,23,14.40
2013,07,30,12,24,14.40
2013,07,30,12,25,14.50
2013,07,30,12,26,14.50
2013,07,30,12,27,14.60
2013,07,30,12,28,14.70
2013,07,30,12,29,14.70
2013,07,30,12,30,14.80
2013,07,30,12,31,14.90
2013,07,30,12,32,15.00
2013,07,30,12,33,15.10
2013,07,30,12,34,15.10
2013,07,30,12,35,15.10
2013,07,30,12,36,15.10
2013,07,30,12,37,15.10
2013,07,30,12,38,15.20
2013,07,30,12,39,15.20
2013,07,30,12,40,15.20
2013,07,30,12,41,15.30
2013,07,30,12,42,15.30
2013,07,30,12,43,15.40
2013,07,30,12,44,15.50
2013,07,30,12,45,15.50
2013,07,30,12,46,15.40
2013,07,30,12,47,15.40
2013,07,30,12,48,15.50
2013,07,30,12,49,15.50
2013,07,30,12,50,15.40
2013,07,30,12,51,15.40
2013,07,30,12,52,15.30
2013,07,30,12,53,15.30
2013,07,30,12,54,15.20
2013,07,30,12,55,15.10
2013,07,30,12,56,15.10
2013,07,30,12,57,15.00
2013,07,30,12,58,14.90
2013,07,30,12,59,14.80
2013,07,30,13,00,14.70
2013,07,30,13,01,14.70
2013,07,30,13,02,14.70
2013,07,30,13,03,14.60
2013,07,30,13,04,14.50
2013,07,30,13,05,14.50
2013,07,30,13,06,14.50
2013,07,30,13,07,14.50
2013,07,30,13,08,14.50
2013,07,30,13,09,14.50
2013,07,30,13,10,14.50
2013,07,30,13,11,14.40
2013,07,30,13,12,14.50
2013,07,30,13,13,14.60
2013,07,30,13,14,14.60
2013,07,30,13,15,14.50
2013,07,30,13,16,14.40
2013,07,30,13,17,14.40
2013,07,30,13,18,14.30
2013,07,30,13,19,14.30
2013,07,30,13,20,14.20
2013,07,30,13,21,14.10
2013,07,30,13,22,14.00
2013,07,30,13,23,13.90
2013,07,30,13,24,13.80
2013,07,30,13,25,13.80
2013,07,30,13,26,13.80
2013,07,30,13,27,13.80
2013,07,30,13,28,13.70
2013,07,30,13,29,13.70
2013,07,30,13,30,13.70
2013,07,30,13,31,13.80
2013,07,30,13,32,13.80
2013,07,30,13,33,13.80
2013,07,30,13,34,13.80
2013,07,30,13,35,13.80
2013,07,30,13,36,13.80
2013,07,30,13,37,13.70
2013,07,30,13,38,13.70
2013,07,30,13,39,13.70
2013,07,30,13,40,13.70
2013,07,30,13,41,13.80
2013,07,30,13,42,13.80
2013,07,30,13,43,13.70
2013,07,30,13,44,13.60
2013,07,30,13,45,13.60
2013,07,30,13,46,13.60
2013,07,30,13,47,13.60
2013,07,30,13,48,13.60
2013,07,30,13,49,13.60
2013,07,30,13,50,13.50
2013,07,30,13,51,13.40
2013,07,30,13,52,13.40
2013,07,30,13,53,13.40
2013,07,30,13,54,13.40
2013,07,30,13,55,13.40
2013,07,30,13,56,13.40
2013,07,30,13,57,13.30
2013,07,30,13,58,13.30
2013,07,30,13,59,13.30
2013,07,30,14,00,13.40
2013,07,30,14,01,13.40
2013,07,30,14,02,13.50
2013,07,30,14,03,13.60
2013,07,30,14,04,13.80
2013,07,30,14,05,13.90
2013,07,30,14,06,13.90
2013,07,30,14,07,13.90
2013,07,30,14,08,13.90
2013,07,30,14,09,13.90
2013,07,30,14,10,13.90
2013,07,30,14,11,14.00
2013,07,30,14,12,14.10
2013,07,30,14,13,14.20
2013,07,30,14,14,14.20
2013,07,30,14,15,14.30
2013,07,30,14,16,14.30
2013,07,30,14,17,14.30
2013,07,30,14,18,14.30
2013,07,30,14,19,14.30
2013,07,30,14,20,14.30
2013,07,30,14,21,14.30
2013,07,30,14,22,14.30
2013,07,30,14,23,14.30
2013,07,30,14,24,14.20
2013,07,30,14,25,14.20
2013,07,30,14,26,14.20
2013,07,30,14,27,14.10
2013,07,30,14,28,14.10
2013,07,30,14,29,14.10
2013,07,30,14,30,14.10
2013,07,30,14,31,14.20
2013,07,30,14,32,14.20
2013,07,30,14,33,14.30
2013,07,30,14,34,14.40
2013,07,30,14,35,14.40
2013,07,30,14,36,14.40
2013,07,30,14,37,14.30
2013,07,30,14,38,14.30
2013,07,30,14,39,14.30
2013,07,30,14,40,14.20
2013,07,30,14,41,14.10
2013,07,30,14,42,14.10
2013,07,30,14,43,14.10
2013,07,30,14,44,14.10
2013,07,30,14,45,14.20
2013,07,30,14,46,14.20
2013,07,30,14,47,14.30
2013,07,30,14,48,14.40
2013,07,30,14,49,14.50
2013,07,30,14,50,14.60
2013,07,30,14,51,14.70
2013,07,30,14,52,14.80
2013,07,30,14,53,15.00
2013,07,30,14,54,15.10
2013,07,30,14,55,15.30
2013,07,30,14,56,15.40
2013,07,30,14,57,15.60
2013,07,30,14,58,15.80
2013,07,30,14,59,16.00
2013,07,30,15,00,16.10
2013,07,30,15,01,16.20
2013,07,30,15,02,16.30
2013,07,30,15,03,16.40
2013,07,30,15,04,16.50
2013,07,30,15,05,16.60
2013,07,30,15,06,16.60
2013,07,30,15,07,16.70
2013,07,30,15,08,16.90
2013,07,30,15,09,17.00
2013,07,30,15,10,17.10
2013,07,30,15,11,17.20
2013,07,30,15,12,17.30
2013,07,30,15,13,17.30
2013,07,30,15,14,17.40
2013,07,30,15,15,17.60
2013,07,30,15,16,17.60
2013,07,30,15,17,17.60
2013,07,30,15,18,17.70
2013,07,30,15,19,17.70
2013,07,30,15,20,17.80
2013,07,30,15,21,17.80
2013,07,30,15,22,17.80
2013,07,30,15,23,17.90
2013,07,30,15,24,18.00
2013,07,30,15,25,18.10
2013,07,30,15,26,18.20
2013,07,30,15,27,18.30
2013,07,30,15,28,18.30
2013,07,30,15,29,18.40
2013,07,30,15,30,18.50
2013,07,30,15,31,18.50
2013,07,30,15,32,18.60
2013,07,30,15,33,18.70
2013,07,30,15,34,18.80
2013,07,30,15,35,18.80
2013,07,30,15,36,18.90
2013,07,30,15,37,18.90
2013,07,30,15,38,19.00
2013,07,30,15,39,19.10
2013,07,30,15,40,19.10
2013,07,30,15,41,19.20
2013,07,30,15,42,19.30
2013,07,30,15,43,19.40
2013,07,30,15,44,19.50
2013,07,30,15,45,19.50
2013,07,30,15,46,19.60
2013,07,30,15,47,19.60
2013,07,30,15,48,19.60
2013,07,30,15,49,19.60
2013,07,30,15,50,19.60
2013,07,30,15,51,19.60
2013,07,30,15,52,19.60
2013,07,30,15,53,19.60
2013,07,30,15,54,19.50
2013,07,30,15,55,19.50
2013,07,30,15,56,19.50
2013,07,30,15,57,19.50
2013,07,30,15,58,19.40
2013,07,30,15,59,19.40
2013,07,30,16,00,19.30
2013,07,30,16,01,19.10
2013,07,30,16,02,18.80
2013,07,30,16,03,18.50
2013,07,30,16,04,18.30
2013,07,30,16,05,18.20
2013,07,30,16,06,18.20
2013,07,30,16,07,18.10
2013,07,30,16,08,18.10
2013,07,30,16,09,18.10
2013,07,30,16,10,18.20
2013,07,30,16,11,18.20
2013,07,30,16,12,18.20
2013,07,30,16,13,18.20
2013,07,30,16,14,18.20
2013,07,30,16,15,18.20
2013,07,30,16,16,18.20
2013,07,30,16,17,18.10
2013,07,30,16,18,18.10
2013,07,30,16,19,18.10
2013,07,30,16,20,18.00
2013,07,30,16,21,18.00
2013,07,30,16,22,18.00
2013,07,30,16,23,18.10
2013,07,30,16,24,18.10
2013,07,30,16,25,18.10
2013,07,30,16,26,18.10
2013,07,30,16,27,18.00
2013,07,30,16,28,18.00
2013,07,30,16,29,18.00
2013,07,30,16,30,18.00
2013,07,30,16,31,18.00
2013,07,30,16,32,18.00
2013,07,30,16,33,17.90
2013,07,30,16,34,17.80
2013,07,30,16,35,17.80
2013,07,30,16,36,17.80
2013,07,30,16,37,17.80
2013,07,30,16,38,17.90
2013,07,30,16,39,18.00
2013,07,30,16,40,18.10
2013,07,30,16,41,18.10
2013,07,30,16,42,18.10
2013,07,30,16,43,18.10
2013,07,30,16,44,18.00
2013,07,30,16,45,18.00
2013,07,30,16,46,17.90
2013,07,30,16,47,17.70
2013,07,30,16,48,17.40
2013,07,30,16,49,17.20
2013,07,30,16,50,17.10
2013,07,30,16,51,17.00
2013,07,30,16,52,16.90
2013,07,30,16,53,17.00
2013,07,30,16,54,16.90
2013,07,30,16,55,16.90
2013,07,30,16,56,16.90
2013,07,30,16,57,16.90
2013,07,30,16,58,16.90
2013,07,30,16,59,16.90
2013,07,30,17,00,16.90
2013,07,30,17,01,16.90
2013,07,30,17,02,16.90
2013,07,30,17,03,16.90
2013,07,30,17,04,16.90
2013,07,30,17,05,17.00
2013,07,30,17,06,17.10
2013,07,30,17,07,17.10
2013,07,30,17,08,17.20
2013,07,30,17,09,17.20
2013,07,30,17,10,17.20
2013,07,30,17,11,17.20
2013,07,30,17,12,17.10
2013,07,30,17,13,17.10
2013,07,30,17,14,17.10
2013,07,30,17,15,17.00
2013,07,30,17,16,16.90
2013,07,30,17,17,16.80
2013,07,30,17,18,16.90
2013,07,30,17,19,16.90